Regional Weather Roundup
Issued by NWS Charleston, SC

Current Version | Previous Version | Graphics & Text | Print | Product List | Glossary On
Versions: 1 2 3 4 5 6 7 8 9 10 11 12 13 14 15 16 17 18 19 20 21 22 23 24 25 26 27 28 29 30 31 32 33 34 35 36 37 38 39 40 41 42 43 44 45 46 47 48 49 50
981 ASUS42 KCHS 201627 RWRCHS REGIONAL WEATHER ROUNDUP NATIONAL WEATHER SERVICE CHARLESTON SC 1100 AM EST MON NOV 20 2017 NOTE: "FAIR" INDICATES FEW OR NO CLOUDS BELOW 12,000 FEET WITH NO SIGNIFICANT WEATHER AND/OR OBSTRUCTIONS TO VISIBILITY. NOT ALL STATIONS ARE QUALITY CONTROLLED. USE DATA WITH CAUTION... ESPECIALLY DEWPOINT OBSERVATIONS. SCZ027-030-031-034>040-042>050-201700- ...SOUTHEAST SOUTH CAROLINA... CITY SKY/WX TMP DP RH WIND PRES REMARKS N CHARLESTON MOSUNNY 55 31 39 NE8 30.27F WATERFRONT PRK NOT AVBL JOHNS ISLAND FAIR 55 30 38 VRB6 30.27S PINOPOLIS N/A 48 34 57 NE6 30.21R MONCKS CORNER FAIR 54 30 40 N6 30.28S SUMMERVILLE FAIR 54 30 40 NE3 30.29S BEAUFORT MCAS MOSUNNY 56 34 43 NE8 30.28S BEAUFORT ARPT FAIR 55 34 44 NE9 30.27S HAZE HILTON HEAD IS SUNNY 57 37 47 N7 30.28R WALTERBORO SUNNY 54 32 43 E3 30.29S ALLENDALE FAIR 54 30 40 VRB7 30.27F ...SOUTHERN MIDLANDS AND PEE DEE... CITY SKY/WX TMP DP RH WIND PRES REMARKS GEORGETOWN FAIR 52 32 46 CALM 30.29S KINGSTREE FAIR 54 28 37 NE5 30.29S ORANGEBURG SUNNY 52 30 43 VRB6 30.29R BARNWELL N/A 55 30 38 NE6 30.28F AIKEN FAIR 50 30 46 E6 30.31S MANNING FAIR 54 18 24 MISG 30.29F COLUMBIA MOSUNNY 53 32 44 CALM 30.29R SUMTER NOT AVBL FLORENCE SUNNY 53 28 38 NE3 30.30R MYRTLE BEACH SUNNY 54 30 40 N10 30.29S N MYRTLE BEACH SUNNY 54 29 38 NE9 30.27S $$ GAZ063-065-086>088-099>101-113>116-118-119-134>141-150-201700- ...SOUTHEAST GEORGIA... CITY SKY/WX TMP DP RH WIND PRES REMARKS SAVANNAH ARPT MOSUNNY 59 34 39 NE7 30.27S HUNTER AAF NOT AVBL FORT STEWART NOT AVBL STATESBORO SUNNY 56 25 29 E3 30.27F SYLVANIA SUNNY 54 33 44 E3 30.28F CLAXTON FAIR 58 33 38 NE7 30.27S ...CSRA...CENTRAL AND FAR SOUTHEAST GEORGIA... CITY SKY/WX TMP DP RH WIND PRES REMARKS THOMSON SUNNY 51 29 42 SE9 30.33S AUGUSTA-BUSH SUNNY 52 33 48 E3 30.28S AUGUSTA-DANIEL SUNNY 52 29 41 CALM 30.29R SWAINSBORO FAIR 54 34 47 NE5 30.27F VIDALIA SUNNY 57 36 44 E5 30.27S EASTMAN FAIR 56 21 24 E5 30.28F HAZLEHURST FAIR 57 22 25 NE3 30.25F ALMA SUNNY 58 35 42 NE7 30.25S WAYCROSS SUNNY 62 41 46 E8 30.24F JESUP FAIR 63 39 42 E6 30.25F BAXLEY FAIR 55 32 41 E8 30.25F BRUNSWICK SUNNY 63 46 55 NE15 30.25S SAINT SIMONS SUNNY 65 50 58 NE12 30.23R $$ SCZ027-028-034-036>038-045-046-048>050-GAZ119-141-201700- ...LAKE AND SUPPLEMENTAL COASTAL OBSERVATIONS... STATION/POSITION TIME TEMP WIND PRES WAVE SWELL AIR SEA DIR/SP/G HT/PER HT/PER/DIR (UTC) (F) (DEG/KT/KT) (MB) (FT/S) (FT/S/D) WINYAH BAY 1530 49 70/ 8 1025.0S LAKE MURRAY 1520 48 CALM / 4 1024.7S ACE BASIN NERRS 1545 56 30/ 4 1025.0S FORT PULASKI 1600 55 61 60/ 10/ 14 1025.2 SAPELO ISLAND 1600 63 50/ 12 1024.0 $$ ANZ835-935-AMZ111-154-330-350-352-354-370-450-454-472-201700- ...C-MAN AND BUOY OBSERVATIONS... STATION/POSITION TIME TEMP WIND PRES WAVE SWELL AIR SEA DIR/SP/G HT/PER HT/PER/DIR (UTC) (F) (DEG/KT/KT) (MB) (FT/S) (FT/S/D) BUOY 41004 1610 59 30/ 16/ 21 1023.5 BUOY 41008 1550 62 67 70/ 16/ 19 1023.4R 3/ 5 FOLLY BEACH CMAN 1600 52 30/ 10/ 13 1025.5S CAPERS NEARSHORE 1608 51 63 50/ 14/ 19 1024.5F FRIPP NEARSHORE 1608 55 62 60/ 14/ 23 1024.0F STATION/POSITION TIME TEMP WIND PRES WAVE SWELL AIR SEA DIR/SP/G HT/PER HT/PER/DIR (UTC) (F) (DEG/KT/KT) (MB) (FT/S) (FT/S/D) 5E ST. MARYS GA 1600 67 N/A 4/ 5 FRYING PAN BUOY 1610 54 20/ 16/ 19 1024.4 BUOY 41025 1610 51 340/ 16/ 21 1024.3 CAPE LOOKOUT NC 1600 340/ 8/ 11 1025.1R BUOY 41002 1550 65 77 30/ 12/ 16 1021.8R 7/ 8 5/310/ 8 BUOY 41010 NOT AVBL ST AUGUSTINE FL 1600 69 66 70/ 13/ 14 1022.4R $$

USA.gov is the U.S. government's official web portal to all federal, state and local government web resources and services.